Time,TemperatureF,DewpointF,PressureIn,WindDirection,WindDirectionDegrees,WindSpeedMPH,WindSpeedGustMPH,Humidity,HourlyPrecipIn,Conditions,Clouds,dailyrainin,SoftwareType,DateUTC
2013-02-07 00:00:00,39.7,34.6,27.94,SSE,153,5.4,16.6,75,0.00,,,-99.99,HOBO +U30 +Weather +,2013-02-07 08:00:00,
2013-02-07 00:15:00,39.7,34.7,27.95,SSE,152,4.5,10.1,73,0.00,,,-99.99,HOBO +U30 +Weather +,2013-02-07 08:15:00,
2013-02-07 00:30:00,39.7,35.0,27.94,SSE,147,4.5,30.0,75,0.00,,,-99.99,HOBO +U30 +Weather +,2013-02-07 08:30:00,
2013-02-07 00:45:00,39.7,35.5,27.95,SSE,149,3.8,22.8,82,0.00,,,-99.99,HOBO +U30 +Weather +,2013-02-07 08:45:00,
2013-02-07 01:00:00,39.7,35.8,27.95,SE,140,3.4,27.7,83,0.00,,,-99.99,HOBO +U30 +Weather +,2013-02-07 09:00:00,
2013-02-07 01:15:00,39.7,36.0,27.97,South,171,3.8,7.4,86,0.00,,,-99.99,HOBO +U30 +Weather +,2013-02-07 09:15:00,
2013-02-07 01:30:00,39.7,34.8,28.01,WSW,246,4.5,18.3,91,0.80,,,-99.99,HOBO +U30 +Weather +,2013-02-07 09:30:00,
2013-02-07 01:45:00,39.5,34.8,28.01,ENE,58,2.9,7.2,92,0.30,,,-99.99,HOBO +U30 +Weather +,2013-02-07 09:45:00,
2013-02-07 02:00:00,39.5,34.6,28.01,ESE,104,2.9,6.3,91,0.00,,,-99.99,HOBO +U30 +Weather +,2013-02-07 10:00:00,
2013-02-07 02:15:00,39.5,34.8,28.02,NNE,13,2.5,23.3,94,0.00,,,-99.99,HOBO +U30 +Weather +,2013-02-07 10:15:00,
2013-02-07 02:30:00,39.5,34.6,28.03,NNE,29,3.4,24.8,87,0.30,,,-99.99,HOBO +U30 +Weather +,2013-02-07 10:30:00,
2013-02-07 02:45:00,39.5,34.7,28.03,ENE,65,1.3,2.9,94,0.00,,,-99.99,HOBO +U30 +Weather +,2013-02-07 10:45:00,
2013-02-07 03:00:00,39.5,34.4,28.03,NE,55,0.4,2.5,94,0.00,,,-99.99,HOBO +U30 +Weather +,2013-02-07 11:00:00,
2013-02-07 03:15:00,39.4,34.1,28.03,NE,42,0.4,24.8,94,0.00,,,-99.99,HOBO +U30 +Weather +,2013-02-07 11:15:00,
2013-02-07 03:30:00,39.4,33.9,28.03,North,350,0.4,2.0,93,0.00,,,-99.99,HOBO +U30 +Weather +,2013-02-07 11:30:00,
2013-02-07 03:45:00,39.4,33.4,28.05,NNW,333,0.4,24.4,94,0.30,,,-99.99,HOBO +U30 +Weather +,2013-02-07 11:45:00,
2013-02-07 04:00:00,39.4,32.9,28.05,NNE,29,0.9,4.3,95,0.30,,,-99.99,HOBO +U30 +Weather +,2013-02-07 12:00:00,
2013-02-07 04:15:00,39.3,32.4,28.05,NE,46,0.0,0.0,96,0.30,,,-99.99,HOBO +U30 +Weather +,2013-02-07 12:15:00,
2013-02-07 04:30:00,39.3,32.5,28.05,NE,52,0.0,0.0,96,0.00,,,-99.99,HOBO +U30 +Weather +,2013-02-07 12:30:00,
2013-02-07 04:45:00,39.2,32.4,28.05,SW,233,0.0,0.0,96,0.00,,,-99.99,HOBO +U30 +Weather +,2013-02-07 12:45:00,
2013-02-07 05:00:00,39.2,32.2,28.05,North,10,0.0,0.0,96,0.00,,,-99.99,HOBO +U30 +Weather +,2013-02-07 13:00:00,
2013-02-07 05:15:00,39.1,32.1,28.05,NW,323,0.0,0.0,96,0.00,,,-99.99,HOBO +U30 +Weather +,2013-02-07 13:15:00,
2013-02-07 05:30:00,39.0,32.4,28.05,NE,48,0.0,0.0,97,0.00,,,-99.99,HOBO +U30 +Weather +,2013-02-07 13:30:00,
2013-02-07 05:45:00,39.0,32.3,28.06,NNW,348,0.0,0.0,97,0.00,,,-99.99,HOBO +U30 +Weather +,2013-02-07 13:45:00,
2013-02-07 06:00:00,38.9,32.6,28.06,WSW,241,0.0,0.0,97,0.00,,,-99.99,HOBO +U30 +Weather +,2013-02-07 14:00:00,
2013-02-07 06:15:00,38.9,32.6,28.07,WSW,239,0.0,0.0,97,0.00,,,-99.99,HOBO +U30 +Weather +,2013-02-07 14:15:00,
2013-02-07 06:30:00,38.9,32.3,28.07,WNW,295,0.0,0.0,97,0.00,,,-99.99,HOBO +U30 +Weather +,2013-02-07 14:30:00,
2013-02-07 06:45:00,38.8,32.3,28.07,NE,42,0.0,0.0,97,0.00,,,-99.99,HOBO +U30 +Weather +,2013-02-07 14:45:00,
2013-02-07 07:00:00,38.8,31.9,28.07,NE,51,0.0,0.0,97,0.00,,,-99.99,HOBO +U30 +Weather +,2013-02-07 15:00:00,
2013-02-07 07:15:00,38.8,32.0,28.07,NE,37,0.0,0.0,97,0.00,,,-99.99,HOBO +U30 +Weather +,2013-02-07 15:15:00,
2013-02-07 07:30:00,38.8,32.2,28.07,NNW,347,0.0,0.0,97,0.00,,,-99.99,HOBO +U30 +Weather +,2013-02-07 15:30:00,
2013-02-07 07:45:00,38.7,31.9,28.08,NE,37,0.0,0.0,97,0.30,,,-99.99,HOBO +U30 +Weather +,2013-02-07 15:45:00,
2013-02-07 08:00:00,38.7,31.6,28.09,NE,52,0.0,0.0,97,0.00,,,-99.99,HOBO +U30 +Weather +,2013-02-07 16:00:00,
2013-02-07 08:15:00,38.6,31.6,28.09,ESE,121,0.0,0.0,97,0.00,,,-99.99,HOBO +U30 +Weather +,2013-02-07 16:15:00,
2013-02-07 08:30:00,38.6,31.8,28.10,SE,138,0.0,0.0,97,0.00,,,-99.99,HOBO +U30 +Weather +,2013-02-07 16:30:00,
2013-02-07 08:45:00,38.5,32.5,28.10,NNE,17,0.0,0.0,97,0.00,,,-99.99,HOBO +U30 +Weather +,2013-02-07 16:45:00,
2013-02-07 09:00:00,38.5,32.8,28.11,SW,232,0.0,0.0,97,0.00,,,-99.99,HOBO +U30 +Weather +,2013-02-07 17:00:00,
2013-02-07 09:15:00,38.4,33.2,28.10,WSW,240,0.0,0.0,97,0.00,,,-99.99,HOBO +U30 +Weather +,2013-02-07 17:15:00,
2013-02-07 09:30:00,38.4,33.8,28.11,South,190,0.0,0.0,96,0.00,,,-99.99,HOBO +U30 +Weather +,2013-02-07 17:30:00,
2013-02-07 09:45:00,38.4,35.0,28.11,North,10,1.6,5.8,91,0.00,,,-99.99,HOBO +U30 +Weather +,2013-02-07 17:45:00,
2013-02-07 10:00:00,38.4,35.8,28.11,NW,314,0.4,11.6,87,0.00,,,-99.99,HOBO +U30 +Weather +,2013-02-07 18:00:00,
2013-02-07 10:15:00,38.4,35.3,28.12,NW,307,0.4,28.6,79,0.00,,,-99.99,HOBO +U30 +Weather +,2013-02-07 18:15:00,
2013-02-07 10:30:00,38.5,35.3,28.11,South,191,1.3,25.7,92,0.00,,,-99.99,HOBO +U30 +Weather +,2013-02-07 18:30:00,
2013-02-07 10:45:00,38.5,35.6,28.12,SE,140,0.9,27.3,91,0.00,,,-99.99,HOBO +U30 +Weather +,2013-02-07 18:45:00,
2013-02-07 11:00:00,38.6,36.3,28.12,South,180,2.0,8.7,92,0.00,,,-99.99,HOBO +U30 +Weather +,2013-02-07 19:00:00,
2013-02-07 11:15:00,38.7,35.3,28.12,SSE,168,2.0,29.5,89,0.00,,,-99.99,HOBO +U30 +Weather +,2013-02-07 19:15:00,
2013-02-07 11:30:00,38.8,35.6,28.12,SSW,206,3.4,25.7,88,0.00,,,-99.99,HOBO +U30 +Weather +,2013-02-07 19:30:00,
2013-02-07 11:45:00,38.9,36.1,28.11,SW,225,2.0,25.3,87,0.00,,,-99.99,HOBO +U30 +Weather +,2013-02-07 19:45:00,
2013-02-07 12:00:00,39.0,35.8,28.11,SW,222,1.6,3.8,84,0.00,,,-99.99,HOBO +U30 +Weather +,2013-02-07 20:00:00,
2013-02-07 12:15:00,39.2,35.4,28.11,SW,225,2.9,27.7,81,0.00,,,-99.99,HOBO +U30 +Weather +,2013-02-07 20:15:00,
2013-02-07 12:30:00,39.3,33.0,28.11,WSW,244,1.6,4.5,66,0.00,,,-99.99,HOBO +U30 +Weather +,2013-02-07 20:30:00,
2013-02-07 12:45:00,39.5,31.4,28.11,SW,222,2.0,7.4,63,0.00,,,-99.99,HOBO +U30 +Weather +,2013-02-07 20:45:00,
2013-02-07 13:00:00,39.6,33.9,28.11,SW,218,3.4,6.3,68,0.00,,,-99.99,HOBO +U30 +Weather +,2013-02-07 21:00:00,
2013-02-07 13:15:00,39.8,32.9,28.11,WSW,258,2.9,6.7,65,0.00,,,-99.99,HOBO +U30 +Weather +,2013-02-07 21:15:00,
2013-02-07 13:30:00,40.0,33.3,28.10,SSW,212,4.9,9.2,69,0.00,,,-99.99,HOBO +U30 +Weather +,2013-02-07 21:30:00,
2013-02-07 13:45:00,40.2,32.6,28.10,SSW,202,3.8,7.2,62,0.00,,,-99.99,HOBO +U30 +Weather +,2013-02-07 21:45:00,
2013-02-07 14:00:00,40.5,31.9,28.10,SSW,204,4.5,28.2,64,0.00,,,-99.99,HOBO +U30 +Weather +,2013-02-07 22:00:00,
2013-02-07 14:15:00,40.7,30.8,28.10,SSW,213,4.5,32.4,65,0.00,,,-99.99,HOBO +U30 +Weather +,2013-02-07 22:15:00,
2013-02-07 14:30:00,40.9,31.0,28.10,WSW,243,4.3,30.6,66,0.00,,,-99.99,HOBO +U30 +Weather +,2013-02-07 22:30:00,
2013-02-07 14:45:00,41.1,31.1,28.10,NW,305,2.0,30.0,65,0.00,,,-99.99,HOBO +U30 +Weather +,2013-02-07 22:45:00,
2013-02-07 15:00:00,41.4,30.9,28.11,West,277,2.0,6.3,59,0.00,,,-99.99,HOBO +U30 +Weather +,2013-02-07 23:00:00,
2013-02-07 15:15:00,41.5,31.3,28.11,SW,225,4.5,9.6,61,0.00,,,-99.99,HOBO +U30 +Weather +,2013-02-07 23:15:00,
2013-02-07 15:30:00,41.6,30.4,28.11,SW,230,4.5,26.2,62,0.00,,,-99.99,HOBO +U30 +Weather +,2013-02-07 23:30:00,
2013-02-07 15:45:00,41.8,28.8,28.11,NNW,330,2.5,6.3,58,0.00,,,-99.99,HOBO +U30 +Weather +,2013-02-07 23:45:00,
2013-02-07 16:00:00,41.9,29.8,28.12,North,355,0.9,28.6,61,0.00,,,-99.99,HOBO +U30 +Weather +,2013-02-08 00:00:00,
2013-02-07 16:15:00,42.0,30.0,28.12,NNW,334,0.9,4.5,63,0.00,,,-99.99,HOBO +U30 +Weather +,2013-02-08 00:15:00,
2013-02-07 16:30:00,42.1,33.6,28.12,NNW,331,0.4,2.0,66,0.00,,,-99.99,HOBO +U30 +Weather +,2013-02-08 00:30:00,
2013-02-07 16:45:00,42.2,31.4,28.13,NW,312,1.3,4.3,67,0.00,,,-99.99,HOBO +U30 +Weather +,2013-02-08 00:45:00,
2013-02-07 17:00:00,42.2,31.6,28.14,SSE,167,1.6,27.3,77,0.00,,,-99.99,HOBO +U30 +Weather +,2013-02-08 01:00:00,
2013-02-07 17:15:00,42.2,31.5,28.14,SSE,150,0.4,2.9,82,0.00,,,-99.99,HOBO +U30 +Weather +,2013-02-08 01:15:00,
2013-02-07 17:30:00,42.2,30.9,28.15,SE,125,0.0,1.3,87,0.00,,,-99.99,HOBO +U30 +Weather +,2013-02-08 01:30:00,
2013-02-07 17:45:00,42.2,30.1,28.15,SE,124,0.9,2.0,87,0.00,,,-99.99,HOBO +U30 +Weather +,2013-02-08 01:45:00,
2013-02-07 18:00:00,42.2,29.4,28.16,NE,49,0.9,26.2,89,0.00,,,-99.99,HOBO +U30 +Weather +,2013-02-08 02:00:00,
2013-02-07 18:15:00,42.2,28.5,28.16,NNE,22,0.9,24.2,90,0.00,,,-99.99,HOBO +U30 +Weather +,2013-02-08 02:15:00,
2013-02-07 18:30:00,42.1,28.6,28.16,NNE,22,0.4,1.6,91,0.00,,,-99.99,HOBO +U30 +Weather +,2013-02-08 02:30:00,
2013-02-07 18:45:00,42.0,27.8,28.16,NNE,22,0.0,1.3,91,0.00,,,-99.99,HOBO +U30 +Weather +,2013-02-08 02:45:00,
2013-02-07 19:00:00,41.9,28.0,28.17,NNE,22,0.0,0.0,93,0.00,,,-99.99,HOBO +U30 +Weather +,2013-02-08 03:00:00,
2013-02-07 19:15:00,41.7,27.9,28.17,NNE,22,0.0,0.0,93,0.00,,,-99.99,HOBO +U30 +Weather +,2013-02-08 03:15:00,
2013-02-07 19:30:00,41.6,27.7,28.18,NNE,22,0.0,0.0,94,0.00,,,-99.99,HOBO +U30 +Weather +,2013-02-08 03:30:00,
2013-02-07 19:45:00,41.5,27.8,28.18,NNE,22,0.0,0.0,94,0.00,,,-99.99,HOBO +U30 +Weather +,2013-02-08 03:45:00,
2013-02-07 20:00:00,41.4,27.5,28.19,NNE,22,0.0,0.0,94,0.00,,,-99.99,HOBO +U30 +Weather +,2013-02-08 04:00:00,
2013-02-07 20:15:00,41.2,28.0,28.19,NNE,22,0.0,0.0,94,0.00,,,-99.99,HOBO +U30 +Weather +,2013-02-08 04:15:00,
2013-02-07 20:30:00,41.1,27.5,28.20,North,350,0.0,0.0,95,0.00,,,-99.99,HOBO +U30 +Weather +,2013-02-08 04:30:00,
2013-02-07 20:45:00,41.0,27.6,28.20,NNW,344,0.0,0.4,95,0.00,,,-99.99,HOBO +U30 +Weather +,2013-02-08 04:45:00,
2013-02-07 21:00:00,40.9,27.4,28.20,NNW,344,0.0,0.9,95,0.00,,,-99.99,HOBO +U30 +Weather +,2013-02-08 05:00:00,
2013-02-07 21:15:00,40.8,26.4,28.20,NNW,344,0.0,26.2,95,0.00,,,-99.99,HOBO +U30 +Weather +,2013-02-08 05:15:00,
2013-02-07 21:30:00,40.6,26.7,28.21,NNW,344,0.0,14.1,95,0.00,,,-99.99,HOBO +U30 +Weather +,2013-02-08 05:30:00,
2013-02-07 21:45:00,40.5,26.4,28.22,NNW,344,0.0,0.9,96,0.00,,,-99.99,HOBO +U30 +Weather +,2013-02-08 05:45:00,
2013-02-07 22:00:00,40.4,25.8,28.22,NNW,344,0.0,1.3,96,0.00,,,-99.99,HOBO +U30 +Weather +,2013-02-08 06:00:00,
2013-02-07 22:15:00,40.2,26.7,28.22,NNW,344,0.0,1.3,96,0.00,,,-99.99,HOBO +U30 +Weather +,2013-02-08 06:15:00,
2013-02-07 22:30:00,40.2,26.2,28.23,NNW,344,0.0,24.4,96,0.00,,,-99.99,HOBO +U30 +Weather +,2013-02-08 06:30:00,
2013-02-07 22:45:00,40.1,26.0,28.22,NNW,344,0.0,0.0,96,0.00,,,-99.99,HOBO +U30 +Weather +,2013-02-08 06:45:00,
2013-02-07 23:00:00,39.9,25.4,28.23,NNW,344,0.0,0.0,95,0.00,,,-99.99,HOBO +U30 +Weather +,2013-02-08 07:00:00,
2013-02-07 23:15:00,39.8,25.5,28.24,NNW,344,0.0,0.0,96,0.00,,,-99.99,HOBO +U30 +Weather +,2013-02-08 07:15:00,
2013-02-07 23:30:00,39.7,25.6,28.24,NNW,344,0.0,0.0,96,0.00,,,-99.99,HOBO +U30 +Weather +,2013-02-08 07:30:00,
2013-02-07 23:45:00,39.5,25.4,28.25,NNW,344,0.0,0.0,96,0.00,,,-99.99,HOBO +U30 +Weather +,2013-02-08 07:45:00,